Location: Bailleul
(50.3375°N, 2.8513°E)
Time: 08:31:06
(UTC+00:00)

Cosmos 1867 - Pass Details

Date: 16 June 2021
Orbit: 773 x 803 km, 65.0° (Epoch: 03 August)

Event Time Altitude Azimuth Distance (km) Brightness Sun altitude
Rises 23:22:47 0° 316° (NW) 3,322 7.7 -16.0°
Reaches altitude 10° 23:25:21 10° 309° (NW) 2,388 6.7 -16.1°
Maximum altitude 23:30:24 39° 242° (WSW) 1,197 4.3 -16.2°
Enters shadow 23:32:53 25° 193° (SSW) 1,569 4.5 -16.2°
